{"data":{"norad_id":37602,"intl_designator":"2011-021A","name":"TELSTAR 14R","alt_names":[],"object_type":"PAYLOAD","status":"ACTIVE","operator":null,"country":"CA","launch_date":"2011-05-20","launch_site_code":"TYMSC","launch_vehicle":null,"mission":null,"orbit_class":"UNKNOWN","rcs_meters":12.5893,"size_class":null,"mass_kg":null,"dimensions":null,"purposes":["comms"],"wikipedia_slug":null,"has_3d_model":false,"image_url":null,"decayed_at":null,"tle_current":{"epoch":"2026-05-25T04:10:09.901344Z","epoch_age_seconds":60004,"freshness":"FRESH","line1":"1 37602U 11021A   26145.17372571 -.00000282  00000+0  00000+0 0  9995","line2":"2 37602   0.0167 349.4026 0002446  69.9594 182.9642  1.00272292 55603","mean_motion":1.00272292,"eccentricity":0.0002446,"inclination_deg":0.0167,"raan_deg":349.4026,"arg_perigee_deg":69.9594,"mean_anomaly_deg":182.9642,"bstar":0,"rev_number":5560,"period_min":1436.0896427899,"perigee_km":35776.139372612,"apogee_km":35796.766289958,"semimajor_km":42164.589831285,"source":"CELESTRAK","updated_at":"2026-05-25T13:38:13.900589Z"}}}